Theta_e
307 307 308 308 308 308 305 301 301 301 302 303 304 305 305 304 304 309 311 309 313 310 306 306 308 309 310 311 313 315 318 322 330 331 330 327 327 327 326 325 325 326 336 337 338
307 307 307 308 308 307 304 302 300 300 302 303 304 305 304 306 311 313 310 313 311 305 307 309 310 311 308 310 311 313 319 322 321 325 326 325 326 327 328 327 327 325 336 338 338
305 306 306 307 307 307 306 304 302 301 301 302 304 304 304 308 315 317 313 308 307 309 312 312 312 310 309 310 310 312 316 321 323 323 323 325 325 325 325 326 326 325 325 337 338
306 306 306 307 305 304 304 305 302 301 300 302 304 304 305 314 316 316 309 310 310 310 311 313 311 308 309 311 311 311 312 314 317 319 320 321 322 322 323 324 324 326 325 331 337
310 310 310 308 305 304 303 303 301 301 301 302 304 304 309 315 318 310 311 311 310 310 313 314 310 308 307 308 309 310 311 311 312 314 318 320 321 321 321 322 323 325 326 323 335
309 309 309 309 307 306 304 303 301 301 301 303 305 306 314 314 313 311 311 311 311 312 312 311 310 310 309 309 309 308 309 309 310 311 312 315 318 319 320 321 323 324 326 324 326
308 309 309 309 308 306 306 304 301 301 302 305 305 311 312 309 313 310 311 309 308 310 310 312 312 311 309 309 309 309 309 309 310 312 313 315 316 317 317 319 323 324 324 324 324
303 304 306 306 307 306 306 303 302 302 302 306 306 312 310 312 314 311 309 309 310 310 310 310 311 310 310 309 309 309 308 308 309 309 313 314 315 316 316 316 318 319 322 323 325
302 304 305 306 306 305 304 302 305 307 308 307 310 312 316 315 312 309 309 309 310 310 310 310 310 309 310 309 306 307 307 308 308 308 310 312 314 315 315 315 316 317 318 319 321
306 306 305 305 305 303 303 305 312 312 312 311 312 313 312 314 310 309 310 309 309 308 309 311 307 308 306 307 310 308 308 308 309 308 309 308 308 309 311 311 313 315 316 318 319
307 307 306 305 305 303 303 311 305 309 312 315 317 316 316 313 310 310 310 309 309 307 307 308 306 308 308 309 311 311 311 310 310 311 311 309 310 310 310 310 310 310 313 315 317
307 307 306 306 304 303 304 309 310 309 308 309 311 311 311 311 309 309 310 309 308 307 307 306 306 308 309 308 309 309 310 309 311 311 311 310 311 311 310 309 309 310 311 312 314
306 306 307 306 303 310 308 311 312 311 308 310 311 312 311 310 309 309 309 309 308 307 307 307 307 308 308 307 311 311 310 313 312 311 311 311 311 311 311 310 310 310 311 312 313
305 305 306 306 308 306 309 311 311 311 310 314 310 310 309 308 308 309 310 308 308 307 307 306 307 307 307 309 313 312 313 314 314 313 311 310 311 310 310 309 309 309 308 310 312
302 304 305 305 304 306 312 311 311 311 319 316 310 310 309 308 310 310 310 308 307 307 306 307 307 306 307 313 313 312 314 314 313 314 311 311 309 311 308 309 309 309 309 309 310
301 305 306 308 309 311 310 310 312 318 321 310 309 310 308 309 309 310 309 308 308 307 307 307 307 308 312 313 313 313 313 311 310 311 312 311 309 311 309 308 309 309 309 310 309
304 307 308 306 308 310 310 310 317 322 316 312 310 310 310 310 311 312 312 308 307 308 307 306 307 311 313 312 310 310 311 312 311 310 311 310 310 310 308 308 313 315 314 313 313
307 312 311 307 307 310 310 311 319 317 311 311 310 310 311 311 311 312 310 309 309 309 307 307 312 309 311 309 308 308 313 313 318 315 313 313 313 311 310 314 314 314 313 313 313
309 313 314 312 312 312 307 313 316 313 310 310 310 311 312 311 311 311 311 310 311 310 312 312 312 311 310 310 310 311 314 313 316 316 320 315 312 310 316 315 315 314 313 312 312
308 311 313 314 313 309 308 315 315 314 311 311 312 312 313 311 311 310 310 312 311 311 308 311 313 312 311 310 309 309 309 310 312 317 318 314 313 313 316 316 314 312 311 311 312
309 310 314 313 309 307 311 314 314 311 311 310 310 312 311 311 310 310 311 310 312 312 310 312 312 313 310 310 309 308 311 314 314 316 317 315 312 315 317 314 313 311 310 311 312
304 312 314 309 305 307 312 314 310 311 312 310 311 311 311 310 310 311 310 310 312 311 313 312 312 314 313 311 311 310 310 311 309 312 315 313 314 313 312 312 311 311 311 312 313
304 306 311 310 306 307 307 310 310 310 313 311 311 310 309 309 311 311 312 312 311 311 312 312 311 316 314 310 312 314 313 314 313 313 313 317 315 314 313 314 311 311 313 313 314
304 308 304 304 304 308 309 310 310 311 312 309 310 309 310 311 310 311 311 311 310 312 314 313 315 316 316 315 314 315 314 313 314 315 315 315 312 312 313 315 313 312 313 312 313
302 305 303 304 304 304 308 310 311 310 309 307 308 309 309 310 309 309 309 309 311 314 313 314 318 315 315 315 315 315 315 315 315 314 314 312 312 311 311 312 312 314 315 315 314
301 301 300 301 303 305 307 308 310 310 308 308 309 309 307 308 308 309 308 310 310 311 313 314 316 314 314 313 313 315 316 315 314 313 313 312 310 309 310 310 312 313 314 314 313
304 304 303 302 302 304 306 306 307 307 306 308 306 306 308 308 308 307 308 309 309 310 309 312 314 315 314 313 313 315 317 316 316 314 312 311 310 317 316 317 314 313 312 312 311
Wind_Speed
19 19 19 19 18 18 18 18 17 16 15 16 17 20 22 24 26 19 5 6 4 5 9 12 10 11 8 4 4 1 2 8 9 11 13 12 7 9 10 7 10 13 3 3 19
20 20 20 20 20 19 19 18 18 17 17 17 18 21 22 23 20 8 6 4 6 6 4 3 3 6 2 5 3 5 5 8 6 9 13 18 19 18 13 16 7 18 14 23 22
21 21 21 21 21 20 20 19 19 18 17 17 18 21 21 17 4 4 6 5 5 3 3 4 6 3 3 4 5 5 14 10 8 7 9 16 23 15 12 15 11 8 17 7 2
23 22 23 23 23 22 21 20 19 18 17 17 18 21 18 1 1 5 3 4 4 4 5 3 1 1 1 4 4 6 7 8 10 14 15 21 21 24 17 19 16 5 9 6 6
25 25 25 26 24 24 23 22 20 18 17 16 18 16 6 2 7 8 3 3 6 6 6 4 3 2 3 4 5 6 9 8 10 12 17 17 23 24 23 19 16 13 7 7 11
26 27 27 27 27 26 24 21 20 18 16 15 14 7 1 3 1 4 3 7 11 8 6 5 0 3 2 2 2 5 6 8 7 9 6 13 21 19 31 16 17 20 4 5 5
27 28 28 28 29 26 25 22 18 16 13 12 9 2 3 11 4 2 6 5 6 5 1 4 2 4 3 9 4 7 8 10 6 4 4 5 15 20 21 11 15 20 14 7 8
28 29 31 31 30 28 26 21 17 15 12 8 3 1 6 7 7 4 2 6 6 8 8 12 8 3 3 2 8 6 4 3 4 7 5 8 24 21 14 9 16 14 20 8 9
30 32 32 32 31 27 26 18 19 15 9 4 1 3 8 11 3 4 3 4 8 10 13 12 6 5 1 2 5 3 5 7 7 7 6 6 16 11 7 10 17 17 15 18 8
32 34 34 35 30 26 21 19 8 5 5 3 3 2 7 2 7 2 2 3 5 5 6 1 4 3 3 4 3 6 5 6 4 5 2 10 15 7 7 8 10 14 16 17 17
36 35 35 35 28 22 19 4 6 4 2 6 6 5 10 11 1 4 8 2 3 5 3 3 4 5 11 9 11 9 12 14 10 7 2 9 14 12 6 7 9 10 13 15 17
37 36 36 33 25 15 9 2 2 5 7 9 13 14 24 20 4 5 10 2 2 3 6 7 4 4 6 6 5 6 6 6 4 6 8 7 17 15 7 7 9 11 11 13 13
35 35 34 31 16 5 6 9 9 9 3 8 5 5 7 8 7 9 6 4 4 2 4 2 9 9 10 7 9 7 6 12 15 12 4 5 15 16 10 5 7 10 10 10 11
36 35 29 28 3 12 4 18 6 4 3 5 5 4 5 4 4 9 12 7 2 7 3 6 7 5 7 3 4 5 9 11 13 8 4 3 15 15 11 12 6 11 10 10 13
39 32 27 10 8 4 13 16 12 3 3 6 4 6 3 4 1 4 15 4 8 7 6 10 7 9 4 1 2 6 7 7 7 10 4 12 5 15 5 13 17 14 11 10 10
39 27 18 0 3 8 18 16 2 2 3 2 3 4 2 4 7 5 5 2 3 5 4 10 5 2 5 4 2 4 4 8 5 3 10 12 6 17 8 8 13 11 10 14 12
34 16 6 3 3 12 17 3 3 4 14 5 7 6 7 5 6 7 3 1 4 3 4 4 3 2 3 1 4 4 5 5 4 1 10 7 8 19 5 10 5 5 10 13 15
25 9 6 3 5 12 9 4 5 6 11 9 8 9 2 11 5 10 7 6 5 6 1 1 6 2 2 5 6 5 5 4 5 2 7 9 6 8 1 4 4 4 7 8 14
15 6 4 4 5 7 5 4 4 5 6 6 7 3 5 8 5 8 6 1 4 5 2 4 3 8 7 5 2 4 5 8 6 11 6 4 7 8 5 4 7 10 10 12 10
10 7 4 5 1 6 5 2 4 9 8 5 2 4 7 8 3 5 4 3 4 3 3 3 7 8 6 6 9 8 3 2 1 3 5 5 7 7 7 9 12 13 14 16 13
4 3 2 1 2 5 3 4 4 14 9 1 4 3 2 2 3 5 5 7 2 2 4 1 3 5 5 6 12 5 3 2 3 5 3 5 5 5 6 8 10 13 15 14 14
7 2 2 2 4 1 0 3 6 11 9 4 3 2 1 3 4 3 5 3 4 2 3 2 3 5 15 20 16 12 9 5 4 4 4 2 9 3 8 11 7 14 16 16 15
4 3 2 2 2 3 6 6 3 5 7 6 4 2 2 3 3 3 4 6 4 5 3 1 3 6 7 2 3 3 2 2 1 2 6 3 6 5 11 10 10 9 16 17 14
2 4 4 4 1 2 5 5 6 5 2 5 4 6 5 4 1 6 7 4 8 4 5 5 5 11 12 17 8 11 16 15 12 6 3 10 15 19 19 12 14 9 18 11 11
3 1 1 4 3 6 2 3 6 5 3 4 4 3 2 3 7 7 4 13 4 6 7 5 5 10 17 22 21 21 20 20 18 15 12 15 20 20 17 14 17 11 14 18 17
2 3 4 3 5 5 4 3 5 5 6 6 3 8 7 5 9 19 14 7 7 6 4 4 4 8 15 19 16 18 18 19 19 19 16 20 24 19 18 21 14 11 9 19 18
6 5 1 4 5 3 1 4 7 12 8 4 7 6 6 9 10 12 13 15 13 11 6 5 2 3 6 10 14 6 6 5 9 12 8 12 15 5 13 15 9 13 13 18 20
Wind_Direction
346 344 342 338 334 331 331 330 329 327 325 326 330 332 331 330 322 327 243 228 235 294 296 312 299 280 261 230 214 283 185 227 226 241 259 303 316 301 293 325 330 313 124 127 150
346 343 341 337 334 331 328 326 326 324 323 325 328 332 335 331 324 272 222 219 237 269 289 298 302 348 215 221 216 187 200 223 228 241 285 302 297 299 326 331 355 340 343 118 153
346 344 341 337 333 329 325 322 322 321 321 323 326 332 335 329 314 255 169 201 237 251 318 282 281 248 230 225 224 220 240 245 267 275 272 289 294 304 312 299 299 339 335 328 138
346 342 339 335 332 329 325 320 319 318 318 321 327 334 336 348 178 209 183 180 170 229 276 315 310 289 260 247 242 258 267 259 267 263 268 274 287 285 284 270 282 266 275 282 193
343 340 338 335 332 328 324 320 317 314 317 322 327 338 357 314 249 203 192 210 231 240 241 185 253 200 198 247 314 257 273 271 262 258 254 261 266 271 280 277 283 283 257 226 211
342 339 336 333 330 326 322 317 312 311 317 323 330 344 357 288 266 193 235 231 245 225 252 196 311 286 243 299 327 294 299 290 271 268 273 265 268 275 270 282 284 285 214 248 162
340 337 335 332 330 326 320 313 307 311 316 329 331 331 258 240 203 238 239 284 301 305 199 235 251 75 12 331 322 306 310 312 278 251 265 330 285 256 270 312 274 276 273 233 232
345 344 341 332 329 325 320 313 313 313 307 323 347 196 250 267 291 321 316 337 326 336 308 289 244 170 171 264 335 323 304 320 320 3 285 168 264 263 281 292 289 290 291 245 221
353 348 343 337 332 327 319 320 314 301 297 277 245 183 268 324 187 189 202 226 271 289 285 280 136 174 286 65 359 318 262 270 315 238 228 175 267 283 289 265 268 271 277 290 243
353 350 345 341 338 331 321 324 341 348 89 117 260 324 280 342 183 214 306 261 258 298 308 226 85 100 356 94 235 250 267 264 288 299 60 288 282 299 310 322 286 286 282 275 283
347 345 343 341 341 333 332 9 10 15 109 218 223 258 303 304 190 334 313 242 356 29 1 308 88 211 242 230 238 253 261 270 272 243 279 277 286 288 289 307 307 308 305 286 276
346 343 340 337 339 331 328 322 259 261 305 250 240 251 261 272 266 270 284 128 1 301 338 9 293 273 285 308 300 296 271 286 285 291 289 266 278 279 264 266 264 273 284 286 277
345 342 338 333 335 359 307 272 320 14 344 300 215 221 227 199 226 247 156 180 224 300 319 226 261 295 316 317 10 353 360 343 318 293 270 290 283 291 281 248 288 285 271 279 268
344 340 340 334 18 334 276 354 346 356 53 275 159 227 152 160 275 230 198 168 231 225 238 256 257 274 300 315 14 331 332 329 332 341 297 288 283 278 293 295 260 278 281 277 288
343 341 337 333 302 312 329 336 333 54 66 177 162 185 210 178 301 239 186 152 215 224 121 248 265 270 282 182 297 274 313 318 290 288 319 283 263 282 306 292 299 278 267 276 273
340 344 334 42 282 350 343 323 12 36 19 125 67 11 11 243 254 261 173 176 220 204 206 235 252 158 161 216 195 327 349 307 264 216 266 271 216 274 246 264 273 292 308 299 306
343 351 317 220 230 344 343 16 59 40 330 29 16 338 328 318 331 15 351 185 245 358 346 335 310 124 137 293 340 79 56 326 316 289 256 203 233 254 260 276 26 356 334 329 330
353 26 19 284 320 334 348 55 74 342 27 21 0 319 7 21 19 349 8 354 46 56 329 55 332 10 183 205 219 215 167 179 280 318 306 308 250 245 317 87 340 318 298 323 323
5 25 33 74 24 335 62 61 189 351 343 351 338 304 8 35 354 7 342 19 67 41 35 328 261 324 264 243 197 234 172 204 201 251 257 240 284 306 27 327 325 303 324 312 305
350 349 304 168 210 39 66 300 322 333 309 47 46 350 341 344 50 18 301 342 9 82 155 318 287 224 248 329 284 187 218 266 16 270 243 253 263 246 312 315 310 319 318 306 304
11 29 249 38 301 50 117 245 314 323 335 230 264 257 343 3 326 316 254 316 58 12 81 106 207 275 316 218 259 267 195 168 128 174 234 283 250 202 247 258 278 294 305 293 285
352 43 239 254 44 40 193 327 314 347 347 317 79 54 85 302 276 270 234 256 100 159 297 165 242 277 275 278 273 258 266 175 151 230 237 219 264 211 222 241 264 293 299 283 280
339 272 318 335 74 339 309 325 329 328 5 22 322 115 282 271 302 246 289 308 177 194 201 154 251 296 293 299 46 87 187 134 129 150 215 224 267 227 255 269 276 285 284 282 284
8 9 331 29 80 48 357 285 328 299 54 22 346 5 17 337 360 292 293 275 324 258 173 153 238 247 268 277 281 274 272 271 237 219 229 238 287 279 273 264 269 270 270 273 287
26 9 97 314 328 326 271 281 307 350 26 39 333 327 69 291 302 255 290 312 300 244 148 140 263 261 272 272 275 279 272 273 259 243 239 265 257 264 275 263 257 250 330 313 299
72 22 347 297 297 316 354 339 314 340 339 304 220 287 272 244 235 280 279 279 245 241 144 157 263 291 288 280 273 275 267 263 259 256 249 253 264 273 282 275 252 237 230 282 296
0 342 32 283 317 328 204 360 310 310 291 302 293 291 273 272 295 268 254 258 245 253 173 166 229 278 278 306 310 286 319 323 314 252 246 254 266 336 337 342 314 287 257 270 288